This is the latest recevied weather packets stored in our database for station/object W3JGB. If no packets are shown the sender has not sent any weather packets the latest 10 day(s).
| Time | Temp. | Humidity | Pressure | Rain* | Wind** | Luminosity | Snow |
|---|---|---|---|---|---|---|---|
| 1777570057 | 13.89° C | 67% | 1008.4 hPa | 0 mm | - | 262 W/m² | - |
| 1777569753 | 13.33° C | 70% | 1008.6 hPa | 0 mm | - | 203 W/m² | - |
| 1777569448 | 13.33° C | 71% | 1008.5 hPa | 0 mm | - | 94 W/m² | - |
| 1777569146 | 13.89° C | 72% | 1008.4 hPa | 0 mm | - | 61 W/m² | - |
| 1777568842 | 13.89° C | 68% | 1008.5 hPa | 0 mm | - | 75 W/m² | - |
| 1777568540 | 14.44° C | 68% | 1008.7 hPa | 0 mm | - | 150 W/m² | - |
| 1777568236 | 13.89° C | 67% | 1008.5 hPa | 0 mm | - | 241 W/m² | - |
| 1777567933 | 13.89° C | 65% | 1008.7 hPa | 0 mm | - | 180 W/m² | - |
| 1777567629 | 13.89° C | 66% | 1008.5 hPa | 0 mm | - | 145 W/m² | - |
| 1777567326 | 13.89° C | 69% | 1008.5 hPa | 0 mm | - | 212 W/m² | - |
| 1777567025 | 14.44° C | 66% | 1008.5 hPa | 0 mm | - | 293 W/m² | - |
| 1777566723 | 13.89° C | 68% | 1008.8 hPa | 0 mm | - | 267 W/m² | - |
| 1777566420 | 13.33° C | 67% | 1008.7 hPa | 0 mm | - | 185 W/m² | - |
| 1777566117 | 12.78° C | 68% | 1008.9 hPa | 0 mm | - | 136 W/m² | - |
| 1777565812 | 13.33° C | 67% | 1008.9 hPa | 0 mm | - | 139 W/m² | - |
| 1777565509 | 13.89° C | 69% | 1008.7 hPa | 0 mm | - | 166 W/m² | - |
| 1777565205 | 13.33° C | 73% | 1008.5 hPa | 0 mm | - | 161 W/m² | - |
| 1777564902 | 13.33° C | 71% | 1008.8 hPa | 0 mm | - | 143 W/m² | - |
| 1777564596 | 13.33° C | 67% | 1008.8 hPa | 0 mm | - | 171 W/m² | - |
| 1777564292 | 13.33° C | 69% | 1009 hPa | 0 mm | - | 230 W/m² | - |
| 1777563989 | 13.89° C | 71% | 1008.8 hPa | 0 mm | - | 173 W/m² | - |
| 1777563685 | 13.33° C | 71% | 1008.9 hPa | 0 mm | - | 233 W/m² | - |
| 1777563381 | 14.44° C | 69% | 1009 hPa | 0 mm | - | 266 W/m² | - |
| 1777563076 | 14.44° C | 71% | 1009 hPa | 0 mm | - | 249 W/m² | - |
| 1777562772 | 13.89° C | 70% | 1008.8 hPa | 0 mm | - | 466 W/m² | - |
* Rain latest hour (hover to see other rain measurements)
** Current wind speed in m/s (hover to see current wind gust speed)